{"data":{"norad_id":51117,"intl_designator":"2022-005P","name":"STARLINK-3391","alt_names":[],"object_type":"PAYLOAD","status":"ACTIVE","operator":null,"country":"US","launch_date":"2022-01-19","launch_site_code":"AFETR","launch_vehicle":null,"mission":null,"orbit_class":"UNKNOWN","rcs_meters":null,"size_class":null,"mass_kg":null,"dimensions":null,"purposes":["comms"],"wikipedia_slug":null,"has_3d_model":false,"image_url":null,"decayed_at":null,"tle_current":{"epoch":"2026-09-20T03:53:18.379392Z","epoch_age_seconds":77436,"freshness":"FRESH","line1":"1 51117U 22005P   26263.16201828  .00002345  00000+0  78099-4 0  9991","line2":"2 51117  53.1607 127.9027 0001208  94.3413 265.7728 15.35406550258345","mean_motion":15.3540655,"eccentricity":0.0001208,"inclination_deg":53.1607,"raan_deg":127.9027,"arg_perigee_deg":94.3413,"mean_anomaly_deg":265.7728,"bstar":7.8099e-5,"rev_number":25834,"period_min":93.786235313377,"perigee_km":458.88718365398,"apogee_km":460.53920826132,"semimajor_km":6837.8501959577,"source":"CELESTRAK","updated_at":"2026-09-20T09:00:39.586434Z"}}}